Wind_Speed
69 69 70 71 72 73 74 75 75 77 78 79 81 82 84 85 87 88 90 91 93 94 97 99 101 103 106 107 109 110 110 111 111 111 111 111 111 111 112 113 114 115
69 70 70 71 72 73 75 76 77 78 80 82 83 85 86 87 89 90 92 93 95 97 99 101 103 105 107 108 109 110 111 111 111 111 111 111 111 112 113 114 115 116
70 70 71 72 74 75 76 78 79 80 82 84 85 86 88 90 91 93 94 95 97 99 101 103 104 106 108 109 110 111 111 112 112 112 111 111 112 113 114 115 116 117
71 72 73 75 76 78 78 79 80 82 84 85 87 89 90 92 93 94 96 97 99 101 103 104 106 107 109 110 111 112 112 112 112 112 112 112 113 114 115 116 117 118
73 74 76 77 78 79 80 81 83 84 86 88 89 90 92 93 94 96 98 100 102 103 105 106 107 108 110 111 112 112 113 112 112 112 113 113 114 115 116 117 118 119
76 76 78 79 80 81 82 83 85 87 88 89 90 91 93 94 96 98 100 102 104 105 106 108 109 110 111 112 113 113 113 113 113 113 114 114 115 116 116 117 118 120
78 79 80 81 82 83 84 86 88 89 90 91 92 93 94 96 98 100 103 104 106 107 108 109 110 111 112 113 113 113 113 113 113 114 114 115 116 116 117 118 119 120
81 82 83 84 85 86 87 89 90 92 92 92 93 95 96 98 101 103 105 106 107 108 109 110 111 113 113 114 114 113 113 113 114 114 115 116 116 117 117 118 119 121
83 84 85 86 88 89 91 92 93 93 93 93 95 97 99 101 103 105 106 108 109 109 110 111 112 113 114 114 114 113 113 114 115 115 116 116 117 118 118 119 120 121
86 87 88 89 91 92 93 93 94 93 93 94 96 98 100 102 105 106 108 109 109 110 111 111 112 113 114 114 114 113 114 114 115 116 117 117 118 118 118 119 121 122
87 89 90 92 93 93 94 95 95 94 95 96 99 102 103 105 107 108 109 109 110 110 111 111 112 113 114 114 114 114 114 115 116 116 117 118 119 119 119 120 122 123
89 91 92 94 94 95 96 97 97 97 98 100 103 105 106 107 108 109 109 109 110 110 111 111 112 113 113 114 114 114 115 115 116 117 118 119 120 120 120 121 122 123
91 93 94 96 96 97 98 98 99 99 101 103 105 107 108 108 109 109 109 109 110 110 111 112 112 112 113 114 114 115 115 116 117 118 120 121 121 121 122 122 123 123
94 95 96 97 98 98 99 100 101 102 103 105 106 108 108 108 109 109 109 110 111 111 112 112 112 112 113 114 114 115 115 116 118 120 121 122 122 122 123 123 123 123
96 96 97 97 98 99 101 102 103 103 104 105 107 108 108 108 108 109 110 111 112 112 113 112 113 113 114 114 115 115 116 118 120 122 123 123 123 124 124 124 124 122
96 96 96 97 98 100 101 102 103 103 104 105 106 107 107 108 108 109 111 112 113 113 113 113 114 115 115 115 115 116 118 120 122 124 124 124 125 126 126 125 124 121
95 96 97 98 99 100 101 102 103 104 104 105 106 107 107 108 109 111 113 114 114 114 115 116 117 117 116 117 117 119 121 123 125 126 126 126 127 127 127 126 123 120
96 97 98 99 100 101 102 103 104 104 105 105 106 107 108 109 111 113 114 115 115 116 117 119 119 119 118 119 120 122 124 125 127 128 128 128 128 128 128 126 123 120
98 98 99 100 101 103 104 104 105 105 106 106 107 108 110 112 114 115 116 116 118 119 121 121 121 121 121 122 124 126 127 127 129 130 131 131 131 129 128 125 123 121
99 100 101 102 103 104 105 106 107 107 107 108 109 111 113 115 117 117 118 119 121 122 123 124 124 124 125 126 128 129 129 130 131 133 133 133 132 130 128 125 123 121
101 102 104 105 106 106 107 108 109 109 110 111 113 115 117 118 119 120 121 123 124 125 126 127 128 129 129 130 131 132 132 133 134 135 135 135 133 130 127 125 123 121
103 105 106 107 108 109 109 110 111 112 113 115 117 119 120 122 123 124 125 127 128 129 130 132 133 134 134 134 135 135 136 137 138 138 137 136 132 129 127 125 123 121
106 108 109 110 110 111 112 113 114 116 118 120 121 123 124 125 127 128 129 131 132 133 135 137 138 138 138 138 138 139 139 140 141 139 137 134 131 128 127 125 123 120
109 111 112 112 113 113 115 116 118 120 122 124 125 126 128 129 130 132 133 135 136 138 140 141 142 142 142 142 142 142 143 143 142 139 135 132 130 128 127 125 122 118
112 113 114 115 115 117 118 120 122 125 126 127 129 130 131 132 134 136 137 138 140 142 143 144 146 146 146 146 145 145 145 143 140 136 133 130 129 128 126 124 120 117
115 116 116 117 119 120 122 124 126 128 129 131 132 133 134 136 137 139 140 142 144 145 146 148 149 150 150 148 147 147 145 142 137 134 131 129 128 127 125 122 118 116
Wind_Direction
286 287 288 288 289 289 290 291 293 294 295 295 295 295 296 297 298 298 298 298 298 298 298 298 299 299 299 299 299 299 299 298 297 297 296 296 296 296 295 295 295 295
287 287 287 288 290 291 292 293 294 295 295 295 295 295 296 297 298 298 298 298 298 298 298 298 299 299 299 299 298 298 298 297 297 296 296 296 296 296 296 296 296 296
287 287 289 290 291 292 293 293 294 295 294 294 294 295 296 297 298 299 299 299 298 298 298 298 298 298 298 298 298 297 297 297 297 296 297 297 297 297 297 297 297 297
288 289 290 290 291 292 293 293 294 294 294 294 294 295 296 298 299 299 299 298 298 298 297 297 297 297 297 297 297 297 297 297 297 297 297 297 297 298 298 298 298 299
289 290 290 291 291 292 292 293 293 294 294 294 295 296 298 299 299 298 297 297 297 297 296 296 297 297 297 297 297 297 297 297 298 298 298 298 298 298 299 299 299 300
290 291 291 291 291 292 292 292 293 293 294 295 296 297 298 298 297 297 296 296 296 296 296 296 296 296 296 296 297 297 297 298 298 299 299 299 299 299 300 300 301 301
291 291 291 291 291 292 292 292 293 294 295 296 297 298 298 297 296 295 295 295 295 296 296 296 296 296 296 297 297 297 298 299 299 299 300 300 300 300 301 302 302 303
292 292 291 292 292 292 292 293 293 294 296 297 297 297 296 295 295 294 295 295 295 296 296 296 296 296 297 297 298 299 299 300 300 300 300 301 301 302 302 303 304 305
292 292 292 292 292 293 293 294 295 295 296 296 297 296 295 294 294 294 294 295 295 295 296 296 296 297 297 298 299 300 300 301 301 301 301 302 302 303 303 304 305 306
293 293 292 292 293 293 294 294 295 295 295 295 296 295 295 294 294 294 294 294 295 295 296 296 297 297 298 299 300 301 301 302 302 302 302 303 303 304 305 306 306 307
293 292 292 292 293 294 294 294 294 294 294 294 295 295 294 294 294 294 294 295 295 296 297 297 298 298 299 300 301 302 302 302 303 303 304 305 305 306 306 307 307 307
291 291 292 292 293 294 294 294 293 293 293 294 294 294 294 294 294 294 295 296 296 297 298 298 299 300 301 302 302 303 303 304 304 305 306 306 307 307 308 308 308 308
291 291 292 293 293 293 293 293 293 293 293 293 293 294 294 294 295 295 296 297 298 299 299 300 300 301 302 303 303 304 304 305 306 307 308 308 308 309 309 309 309 309
291 292 293 293 293 293 293 294 294 294 293 293 293 294 294 295 296 297 298 299 300 300 300 301 301 302 303 303 304 305 306 307 308 309 309 309 309 310 310 310 310 309
292 293 294 294 294 294 294 294 294 294 294 293 294 294 295 296 297 298 300 300 301 301 301 302 303 303 304 305 305 306 308 309 309 310 310 310 311 311 311 311 311 310
293 294 294 295 295 295 295 295 295 294 294 294 295 296 297 298 299 301 301 302 302 302 303 304 304 305 305 306 307 308 309 310 311 311 311 311 312 312 312 312 311 311
294 294 295 296 296 295 295 295 295 295 295 296 297 298 299 300 302 303 303 303 303 304 305 306 306 307 307 308 309 310 311 312 312 312 312 312 313 313 313 312 312 312
295 295 296 296 296 295 295 295 296 296 297 298 299 300 301 302 303 304 304 304 305 306 307 307 308 308 309 310 311 312 312 313 313 313 313 313 313 313 313 313 313 312
295 296 296 296 296 296 296 297 298 298 299 300 301 302 303 304 305 305 305 306 307 308 308 309 309 310 311 312 312 313 313 314 314 314 314 314 314 313 313 313 313 313
296 296 297 297 297 297 298 299 299 300 301 302 303 304 305 305 306 306 307 308 309 309 310 310 311 311 312 313 313 313 314 314 315 315 314 314 314 314 314 313 313 313
297 297 298 298 298 299 300 300 301 302 302 304 305 305 306 307 307 308 309 309 310 310 311 312 312 313 313 313 314 314 315 315 315 315 315 314 314 314 314 313 313 312
298 298 298 299 300 300 301 302 302 303 304 305 306 306 307 308 308 309 310 310 311 312 313 313 313 314 314 314 314 315 315 315 315 315 315 314 314 314 314 313 313 312
298 299 299 300 301 301 302 303 304 305 305 306 307 307 308 308 309 310 311 312 312 313 314 314 314 314 314 314 315 315 315 315 315 315 314 314 313 314 314 313 313 312
299 300 300 301 302 303 303 304 305 306 306 307 307 307 308 309 310 311 312 312 313 314 314 314 314 314 314 315 315 315 315 315 314 314 313 313 313 313 313 313 312 312
300 300 301 302 303 304 305 305 305 306 306 307 307 307 308 309 310 311 312 313 313 314 314 314 314 314 314 314 314 314 314 314 313 313 313 313 313 313 313 312 312 311
300 301 302 303 304 304 305 305 305 306 306 306 307 308 309 310 311 311 312 313 313 314 314 314 314 314 314 314 314 313 313 313 313 313 313 313 313 312 312 312 311 311
Height
10669 10666 10664 10661 10658 10655 10652 10649 10646 10643 10639 10636 10632 10629 10625 10621 10617 10613 10608 10604 10600 10595 10590 10585 10579 10574 10569 10564 10559 10554 10549 10543 10538 10532 10526 10521 10514 10508 10501 10494 10488 10480
10661 10658 10656 10653 10650 10647 10644 10640 10637 10634 10631 10627 10623 10620 10616 10612 10607 10603 10598 10594 10589 10585 10579 10574 10568 10563 10558 10553 10548 10542 10537 10531 10525 10519 10513 10506 10500 10493 10486 10479 10472 10464
10652 10650 10647 10644 10641 10637 10635 10631 10628 10625 10621 10618 10614 10610 10606 10602 10597 10593 10588 10584 10579 10574 10568 10562 10557 10552 10546 10540 10535 10530 10524 10518 10512 10506 10499 10492 10484 10477 10470 10463 10456 10448
10643 10641 10638 10635 10632 10628 10625 10622 10619 10615 10612 10608 10605 10601 10597 10592 10587 10582 10577 10573 10568 10563 10557 10551 10546 10540 10534 10528 10522 10516 10510 10504 10498 10492 10484 10477 10470 10462 10455 10448 10440 10432
10634 10632 10629 10625 10622 10619 10616 10612 10609 10605 10602 10598 10595 10590 10586 10581 10576 10572 10567 10562 10557 10552 10546 10540 10535 10529 10523 10516 10510 10504 10497 10491 10484 10477 10469 10462 10455 10448 10440 10432 10424 10415
10625 10622 10619 10615 10612 10609 10606 10603 10599 10596 10592 10588 10584 10580 10575 10570 10566 10561 10556 10551 10546 10541 10535 10529 10523 10517 10510 10504 10498 10491 10485 10478 10470 10462 10454 10447 10440 10433 10425 10416 10408 10399
10615 10612 10608 10605 10602 10599 10596 10593 10589 10585 10581 10577 10573 10569 10564 10559 10555 10550 10545 10540 10534 10529 10523 10517 10511 10504 10497 10491 10484 10478 10472 10464 10456 10447 10439 10432 10424 10417 10409 10401 10392 10382
10605 10601 10598 10595 10592 10589 10586 10582 10579 10575 10570 10566 10562 10558 10553 10549 10544 10538 10533 10528 10523 10517 10511 10505 10498 10491 10484 10477 10471 10464 10457 10449 10441 10432 10424 10416 10409 10401 10394 10386 10377 10366
10594 10591 10587 10584 10581 10578 10575 10572 10568 10563 10559 10555 10551 10547 10543 10538 10532 10527 10521 10516 10511 10505 10499 10492 10485 10477 10470 10463 10457 10450 10443 10434 10425 10416 10408 10400 10392 10385 10378 10370 10361 10351
10583 10580 10576 10573 10571 10568 10565 10561 10556 10552 10549 10545 10541 10536 10532 10526 10520 10515 10510 10504 10499 10493 10486 10479 10472 10464 10457 10450 10443 10436 10428 10419 10410 10401 10392 10384 10376 10369 10363 10354 10345 10335
10573 10569 10566 10563 10560 10557 10554 10549 10545 10541 10538 10534 10530 10525 10520 10514 10508 10502 10497 10492 10486 10480 10473 10466 10458 10451 10443 10436 10429 10421 10413 10405 10395 10385 10376 10368 10360 10353 10346 10338 10328 10319
10562 10558 10556 10553 10550 10547 10542 10538 10534 10530 10527 10523 10518 10513 10507 10501 10495 10490 10484 10479 10473 10466 10459 10452 10445 10438 10430 10422 10414 10406 10398 10389 10379 10369 10360 10351 10344 10337 10329 10321 10311 10302
10551 10548 10546 10543 10539 10536 10531 10527 10523 10519 10516 10511 10506 10500 10494 10488 10482 10476 10471 10465 10458 10451 10445 10438 10431 10425 10417 10408 10400 10392 10383 10374 10363 10353 10344 10335 10328 10320 10312 10304 10294 10285
10541 10538 10535 10532 10528 10524 10520 10516 10511 10507 10503 10498 10493 10487 10480 10475 10469 10463 10457 10450 10443 10436 10430 10424 10418 10411 10403 10394 10386 10378 10368 10359 10348 10338 10328 10319 10312 10304 10295 10286 10278 10268
10530 10528 10525 10521 10517 10513 10508 10504 10499 10495 10490 10485 10479 10473 10467 10462 10456 10449 10442 10435 10428 10421 10415 10409 10403 10396 10388 10379 10371 10363 10353 10343 10333 10322 10313 10304 10296 10288 10279 10269 10260 10251
10519 10516 10513 10510 10505 10500 10496 10491 10486 10482 10476 10471 10465 10459 10453 10448 10441 10434 10427 10419 10413 10406 10400 10394 10387 10379 10372 10364 10356 10347 10338 10328 10317 10307 10297 10288 10280 10271 10262 10252 10243 10235
10508 10505 10502 10498 10493 10488 10483 10478 10473 10468 10463 10457 10451 10445 10439 10433 10426 10419 10412 10404 10397 10391 10384 10377 10370 10363 10356 10348 10340 10331 10322 10312 10301 10291 10281 10273 10265 10256 10245 10236 10227 10219
10496 10493 10490 10486 10481 10475 10470 10464 10459 10454 10449 10443 10437 10431 10425 10419 10411 10404 10397 10389 10382 10375 10368 10360 10352 10346 10339 10331 10323 10315 10306 10297 10285 10274 10265 10257 10248 10240 10230 10221 10212 10203
10484 10481 10477 10473 10468 10462 10456 10450 10444 10439 10435 10429 10423 10417 10410 10403 10396 10389 10382 10374 10367 10359 10351 10343 10335 10329 10322 10314 10306 10298 10290 10282 10270 10258 10249 10240 10231 10223 10214 10205 10197 10188
10471 10468 10464 10459 10453 10447 10442 10436 10430 10424 10420 10414 10408 10402 10395 10388 10380 10373 10366 10359 10351 10342 10334 10326 10317 10311 10305 10298 10289 10282 10274 10265 10255 10244 10234 10224 10215 10207 10199 10190 10182 10173
10459 10454 10449 10444 10439 10433 10428 10422 10415 10410 10404 10398 10392 10386 10379 10371 10364 10357 10350 10343 10335 10326 10317 10309 10300 10293 10288 10281 10272 10265 10257 10248 10239 10229 10219 10209 10199 10192 10184 10175 10166 10158
10445 10440 10434 10429 10424 10419 10413 10407 10400 10394 10388 10382 10376 10369 10362 10355 10348 10341 10334 10326 10317 10309 10300 10292 10283 10276 10270 10263 10255 10247 10239 10231 10222 10213 10203 10193 10185 10177 10169 10160 10151 10143
10430 10425 10420 10415 10410 10404 10398 10391 10385 10378 10372 10365 10359 10353 10346 10339 10332 10325 10318 10309 10300 10292 10284 10275 10266 10258 10251 10245 10238 10230 10222 10214 10205 10197 10188 10178 10170 10163 10154 10145 10136 10129
10415 10410 10405 10400 10395 10389 10382 10376 10369 10362 10355 10349 10343 10337 10330 10323 10317 10309 10301 10292 10284 10276 10268 10259 10249 10240 10234 10228 10221 10213 10206 10198 10189 10182 10173 10164 10156 10148 10139 10130 10122 10115
10401 10396 10391 10385 10379 10373 10367 10360 10354 10346 10340 10334 10328 10321 10315 10308 10300 10293 10285 10276 10268 10260 10252 10243 10233 10224 10217 10212 10205 10197 10189 10182 10174 10166 10158 10149 10141 10133 10124 10116 10108 10101
10387 10382 10376 10370 10364 10359 10352 10345 10339 10332 10326 10320 10313 10306 10300 10292 10285 10277 10269 10261 10253 10245 10237 10227 10218 10209 10201 10196 10189 10180 10172 10166 10160 10151 10143 10135 10127 10118 10110 10103 10095 10087